Location: Cossonay
(46.5833°N, 6.4167°E)
Time: 11:04:06
(UTC+00:00)

STARLINK-1257 - Pass Details

Date: 03 October 2020
Orbit: 549 x 550 km, 53.0° (Epoch: 21 October)

Event Time Altitude Azimuth Distance (km) Brightness Sun altitude
Exits shadow 03:14:40 16° 152° (SSE) 1,466 5.8 -24.7°
Maximum altitude 03:15:48 18° 131° (SE) 1,386 5.9 -24.5°
Drops below altitude 10° 03:18:37 10° 88° (E) 1,821 7.2 -24.0°
Sets 03:21:24 0° 69° (ENE) 2,719 8.6 -23.6°
